| time (UTC) | temp C | wind direction | speed KPH | gust KPH | rain 1hr cm | rain 24hr cm | rain mn cm | humidity % | barometer mb |
| 20260906220751 | 30 | 286 | 0.0 | 1.6 | 0.00 | 0.00 | 0.00 | 31 | 1015.0 |
| 20260906220049 | 31 | 0 | 1.6 | 6.4 | 0.00 | 0.00 | 0.00 | 29 | 1015.0 |
| 20260906215815 | 31 | 330 | 1.6 | 4.8 | 0.00 | 0.00 | 0.00 | 30 | 1015.1 |
| 20260906214801 | 30 | 284 | 1.6 | 8.0 | 0.00 | 0.00 | 0.00 | 33 | 1015.1 |
| 20260906214604 | 29 | 184 | 0.0 | 11.3 | 0.00 | 0.00 | 0.00 | 31 | 1015.1 |
| 20260906213741 | 31 | 101 | 1.6 | 8.0 | 0.00 | 0.00 | 0.00 | 31 | 1015.1 |
| 20260906213055 | 31 | 57 | 1.6 | 11.3 | 0.00 | 0.00 | 0.00 | 31 | 1015.1 |
| 20260906212749 | 31 | 42 | 1.6 | 8.0 | 0.00 | 0.00 | 0.00 | 31 | 1015.2 |
| 20260906211739 | 30 | 139 | 1.6 | 6.4 | 0.00 | 0.00 | 0.00 | 31 | 1015.5 |
| 20260906211549 | 30 | 132 | 3.2 | 9.7 | 0.00 | 0.00 | 0.00 | 31 | 1015.5 |
| 20260906210749 | 30 | 40 | 0.0 | 12.9 | 0.00 | 0.00 | 0.00 | 32 | 1015.5 |
| 20260906210049 | 29 | 140 | 1.6 | 14.5 | 0.00 | 0.00 | 0.00 | 30 | 1015.5 |
| 20260906205749 | 30 | 249 | 1.6 | 12.9 | 0.00 | 0.00 | 0.00 | 31 | 1015.6 |
| 20260906204730 | 28 | 29 | 3.2 | 12.9 | 0.00 | 0.00 | 0.00 | 33 | 1016.0 |
| 20260906204554 | 28 | 182 | 1.6 | 16.1 | 0.00 | 0.00 | 0.00 | 32 | 1016.0 |
| 20260906203728 | 28 | 97 | 3.2 | 12.9 | 0.00 | 0.00 | 0.00 | 33 | 1016.1 |
| 20260906203053 | 30 | 85 | 4.8 | 12.9 | 0.00 | 0.00 | 0.00 | 31 | 1016.2 |
| 20260906202739 | 30 | 51 | 1.6 | 16.1 | 0.00 | 0.00 | 0.00 | 32 | 1016.2 |
| 20260906201549 | 29 | 57 | 1.6 | 19.3 | 0.00 | 0.00 | 0.00 | 33 | 1015.9 |
| 20260906200555 | 29 | 68 | 1.6 | 9.7 | 0.00 | 0.00 | 0.00 | 33 | 1016.2 |
| 20260906200057 | 28 | 74 | 1.6 | 11.3 | 0.00 | 0.00 | 0.00 | 33 | 1016.2 |
| 20260906194554 | 28 | 67 | 3.2 | 12.9 | 0.00 | 0.00 | 0.00 | 34 | 1016.4 |
| 20260906194439 | 28 | 74 | 3.2 | 12.9 | 0.00 | 0.00 | 0.00 | 34 | 1016.5 |
| 20260906193428 | 28 | 125 | 3.2 | 12.9 | 0.00 | 0.00 | 0.00 | 35 | 1016.6 |
| 20260906193051 | 27 | 35 | 3.2 | 12.9 | 0.00 | 0.00 | 0.00 | 35 | 1016.7 |
| 20260906192452 | 29 | 128 | 1.6 | 9.7 | 0.00 | 0.00 | 0.00 | 31 | 1016.7 |
| 20260906191612 | 30 | 0 | 0.0 | 6.4 | 0.00 | 0.00 | 0.00 | 31 | 1016.8 |
| 20260906191421 | 30 | 304 | 0.0 | 0.0 | 0.00 | 0.00 | 0.00 | 32 | 1016.8 |
| 20260906190447 | 29 | 92 | 1.6 | 6.4 | 0.00 | 0.00 | 0.00 | 33 | 1017.0 |
| 20260906185503 | 27 | 80 | 3.2 | 11.3 | 0.00 | 0.00 | 0.00 | 36 | 1017.0 |
| 20260906184601 | 26 | 63 | 3.2 | 12.9 | 0.00 | 0.00 | 0.00 | 38 | 1017.1 |
| 20260906184501 | 27 | 113 | 1.6 | 11.3 | 0.00 | 0.00 | 0.00 | 38 | 1017.0 |
| 20260906183500 | 27 | 70 | 1.6 | 11.3 | 0.00 | 0.00 | 0.00 | 37 | 1017.1 |
| 20260906183052 | 27 | 323 | 1.6 | 12.9 | 0.00 | 0.00 | 0.00 | 38 | 1017.3 |
| 20260906182525 | 26 | 304 | 1.6 | 11.3 | 0.00 | 0.00 | 0.00 | 38 | 1017.5 |
| 20260906181600 | 26 | 0 | 1.6 | 11.3 | 0.00 | 0.00 | 0.00 | 38 | 1017.5 |
| 20260906180435 | 26 | 121 | 1.6 | 11.3 | 0.00 | 0.00 | 0.00 | 38 | 1017.9 |
| 20260906180112 | 25 | 63 | 1.6 | 12.9 | 0.00 | 0.00 | 0.00 | 40 | 1018.0 |
| 20260906175435 | 26 | 53 | 1.6 | 11.3 | 0.00 | 0.00 | 0.00 | 39 | 1018.0 |
| 20260906174556 | 26 | 0 | 1.6 | 14.5 | 0.00 | 0.00 | 0.00 | 39 | 1018.1 |
| 20260906174429 | 26 | 54 | 3.2 | 11.3 | 0.00 | 0.00 | 0.00 | 39 | 1018.1 |
| 20260906173448 | 25 | 47 | 1.6 | 9.7 | 0.00 | 0.00 | 0.00 | 41 | 1018.2 |
| 20260906173054 | 24 | 70 | 1.6 | 12.9 | 0.00 | 0.00 | 0.00 | 42 | 1018.3 |
| 20260906172415 | 24 | 58 | 3.2 | 11.3 | 0.00 | 0.00 | 0.00 | 43 | 1018.3 |
| 20260906171549 | 23 | 188 | 4.8 | 12.9 | 0.00 | 0.00 | 0.00 | 43 | 1018.3 |
| 20260906171347 | 23 | 115 | 4.8 | 11.3 | 0.00 | 0.00 | 0.00 | 43 | 1018.3 |
| 20260906170402 | 25 | 148 | 1.6 | 6.4 | 0.00 | 0.00 | 0.00 | 40 | 1018.4 |
| 20260906170059 | 25 | 135 | 1.6 | 11.3 | 0.00 | 0.00 | 0.00 | 39 | 1018.3 |
| 20260906165421 | 25 | 104 | 3.2 | 12.9 | 0.00 | 0.00 | 0.00 | 39 | 1018.4 |
| 20260906164556 | 25 | 123 | 1.6 | 14.5 | 0.00 | 0.00 | 0.00 | 39 | 1018.5 |
| 20260906164419 | 25 | 103 | 3.2 | 12.9 | 0.00 | 0.00 | 0.00 | 39 | 1018.5 |
| 20260906163111 | 24 | 0 | 0.0 | 6.4 | 0.00 | 0.00 | 0.00 | 41 | 1018.6 |
| 20260906162249 | 23 | 83 | 1.6 | 11.3 | 0.00 | 0.00 | 0.00 | 42 | 1018.6 |
| 20260906161549 | 23 | 82 | 3.2 | 12.9 | 0.00 | 0.00 | 0.00 | 42 | 1018.6 |
| 20260906160119 | 23 | 55 | 1.6 | 9.7 | 0.00 | 0.00 | 0.00 | 43 | 1018.7 |
| 20260906160049 | 22 | 126 | 3.2 | 12.9 | 0.00 | 0.00 | 0.00 | 43 | 1018.7 |
| 20260906155058 | 23 | 115 | 1.6 | 4.8 | 0.00 | 0.00 | 0.00 | 41 | 1018.6 |
| 20260906154555 | 22 | 136 | 1.6 | 9.7 | 0.00 | 0.00 | 0.00 | 42 | 1018.6 |
| 20260906154037 | 22 | 87 | 1.6 | 6.4 | 0.00 | 0.00 | 0.00 | 45 | 1018.5 |
| 20260906153052 | 21 | 163 | 1.6 | 9.7 | 0.00 | 0.00 | 0.00 | 44 | 1018.6 |
| 20260906152110 | 22 | 104 | 1.6 | 4.8 | 0.00 | 0.00 | 0.00 | 44 | 1018.5 |
| 20260906151549 | 21 | 125 | 3.2 | 6.4 | 0.00 | 0.00 | 0.00 | 44 | 1018.5 |
| 20260906151112 | 21 | 86 | 1.6 | 4.8 | 0.00 | 0.00 | 0.00 | 46 | 1018.5 |
| 20260906150128 | 22 | 97 | 0.0 | 3.2 | 0.00 | 0.00 | 0.00 | 44 | 1018.6 |
| 20260906150059 | 21 | 97 | 1.6 | 4.8 | 0.00 | 0.00 | 0.00 | 44 | 1018.6 |
| 20260906145110 | 21 | 77 | 0.0 | 3.2 | 0.00 | 0.00 | 0.00 | 42 | 1018.6 |
| 20260906144552 | 21 | 77 | 0.0 | 6.4 | 0.00 | 0.00 | 0.00 | 42 | 1018.6 |
| 20260906144050 | 21 | 46 | 1.6 | 3.2 | 0.00 | 0.00 | 0.00 | 42 | 1018.6 |
| 20260906143107 | 21 | 57 | 0.0 | 3.2 | 0.00 | 0.00 | 0.00 | 41 | 1018.6 |
| 20260906143101 | 20 | 57 | 0.0 | 4.8 | 0.00 | 0.00 | 0.00 | 41 | 1018.6 |
| 20260906142129 | 19 | 259 | 0.0 | 0.0 | 0.00 | 0.00 | 0.00 | 44 | 1018.6 |
| 20260906141600 | 18 | 0 | 0.0 | 0.0 | 0.00 | 0.00 | 0.00 | 46 | 1018.6 |
| 20260906141055 | 18 | 259 | 0.0 | 0.0 | 0.00 | 0.00 | 0.00 | 46 | 1018.6 |
| 20260906140114 | 16 | 259 | 0.0 | 0.0 | 0.00 | 0.00 | 0.00 | 49 | 1018.6 |
| 20260906140056 | 16 | 0 | 0.0 | 0.0 | 0.00 | 0.00 | 0.00 | 50 | 1018.6 |
| 20260906134552 | 14 | 0 | 0.0 | 0.0 | 0.00 | 0.00 | 0.00 | 55 | 1018.5 |
| 20260906133924 | 13 | 259 | 0.0 | 0.0 | 0.00 | 0.00 | 0.00 | 56 | 1018.5 |
| 20260906133056 | 12 | 0 | 0.0 | 0.0 | 0.00 | 0.00 | 0.00 | 58 | 1018.5 |
| 20260906132941 | 12 | 259 | 0.0 | 0.0 | 0.00 | 0.00 | 0.00 | 59 | 1018.6 |
| 20260906131923 | 12 | 259 | 0.0 | 0.0 | 0.00 | 0.00 | 0.00 | 60 | 1018.5 |
| 20260906131608 | 11 | 0 | 0.0 | 0.0 | 0.00 | 0.00 | 0.00 | 59 | 1018.6 |
| 20260906130928 | 11 | 259 | 0.0 | 0.0 | 0.00 | 0.00 | 0.00 | 59 | 1018.7 |
| 20260906130105 | 11 | 0 | 0.0 | 0.0 | 0.00 | 0.00 | 0.00 | 60 | 1018.7 |
| 20260906125929 | 12 | 259 | 0.0 | 0.0 | 0.00 | 0.00 | 0.00 | 59 | 1018.7 |
| 20260906124942 | 11 | 259 | 0.0 | 0.0 | 0.00 | 0.00 | 0.00 | 59 | 1018.7 |
| 20260906124553 | 11 | 0 | 0.0 | 0.0 | 0.00 | 0.00 | 0.00 | 59 | 1018.7 |
| 20260906123053 | 11 | 0 | 0.0 | 0.0 | 0.00 | 0.00 | 0.00 | 59 | 1018.6 |
| 20260906121737 | 12 | 259 | 0.0 | 0.0 | 0.00 | 0.00 | 0.00 | 57 | 1018.4 |
| 20260906121550 | 12 | 0 | 0.0 | 0.0 | 0.00 | 0.00 | 0.00 | 57 | 1018.4 |
| 20260906120719 | 12 | 259 | 0.0 | 0.0 | 0.00 | 0.00 | 0.00 | 55 | 1018.4 |
| 20260906120101 | 12 | 0 | 0.0 | 0.0 | 0.00 | 0.00 | 0.00 | 55 | 1018.3 |
| 20260906115723 | 12 | 259 | 0.0 | 0.0 | 0.00 | 0.00 | 0.00 | 56 | 1018.2 |
| 20260906114735 | 12 | 259 | 0.0 | 0.0 | 0.00 | 0.00 | 0.00 | 55 | 1018.1 |
| 20260906114553 | 12 | 0 | 0.0 | 0.0 | 0.00 | 0.00 | 0.00 | 55 | 1018.0 |
| 20260906113744 | 12 | 259 | 0.0 | 0.0 | 0.00 | 0.00 | 0.00 | 56 | 1018.2 |
| 20260906113051 | 12 | 0 | 0.0 | 0.0 | 0.00 | 0.00 | 0.00 | 57 | 1018.2 |
| 20260906112748 | 12 | 259 | 0.0 | 0.0 | 0.00 | 0.00 | 0.00 | 56 | 1018.2 |
| 20260906111548 | 12 | 0 | 0.0 | 0.0 | 0.00 | 0.00 | 0.00 | 58 | 1018.1 |
| 20260906110632 | 12 | 259 | 0.0 | 0.0 | 0.00 | 0.00 | 0.00 | 57 | 1018.0 |
| 20260906110056 | 12 | 0 | 0.0 | 0.0 | 0.00 | 0.00 | 0.00 | 58 | 1018.0 |
| 20260906105636 | 12 | 259 | 0.0 | 0.0 | 0.00 | 0.00 | 0.00 | 58 | 1018.0 |
| 20260906104657 | 13 | 259 | 0.0 | 0.0 | 0.00 | 0.00 | 0.00 | 58 | 1018.0 |
| 20260906104551 | 12 | 0 | 0.0 | 0.0 | 0.00 | 0.00 | 0.00 | 57 | 1018.0 |
| 20260906103049 | 13 | 0 | 0.0 | 0.0 | 0.00 | 0.00 | 0.00 | 57 | 1018.1 |
| 20260906102515 | 13 | 259 | 0.0 | 0.0 | 0.00 | 0.00 | 0.00 | 58 | 1018.1 |
| 20260906101550 | 13 | 0 | 0.0 | 4.8 | 0.00 | 0.00 | 0.00 | 57 | 1018.2 |
| 20260906101452 | 13 | 259 | 0.0 | 0.0 | 0.00 | 0.00 | 0.00 | 57 | 1018.2 |
| 20260906100514 | 14 | 259 | 0.0 | 0.0 | 0.00 | 0.00 | 0.00 | 55 | 1018.2 |
| 20260906100055 | 14 | 0 | 0.0 | 0.0 | 0.00 | 0.00 | 0.00 | 54 | 1018.1 |
| 20260906095509 | 15 | 259 | 0.0 | 0.0 | 0.00 | 0.00 | 0.00 | 53 | 1018.1 |
| 20260906094549 | 15 | 0 | 1.6 | 16.1 | 0.00 | 0.00 | 0.00 | 50 | 1018.1 |
| 20260906094526 | 15 | 258 | 1.6 | 12.9 | 0.00 | 0.00 | 0.00 | 50 | 1018.1 |
| 20260906093505 | 15 | 275 | 1.6 | 12.9 | 0.00 | 0.00 | 0.00 | 52 | 1018.0 |
| 20260906093057 | 14 | 264 | 3.2 | 19.3 | 0.00 | 0.00 | 0.00 | 52 | 1018.2 |
| 20260906092516 | 14 | 294 | 0.0 | 8.0 | 0.00 | 0.00 | 0.00 | 56 | 1018.3 |
| 20260906091557 | 14 | 0 | 0.0 | 4.8 | 0.00 | 0.00 | 0.00 | 55 | 1018.4 |
| 20260906091456 | 15 | 273 | 0.0 | 3.2 | 0.00 | 0.00 | 0.00 | 55 | 1018.3 |
| 20260906090521 | 15 | 286 | 0.0 | 0.0 | 0.00 | 0.00 | 0.00 | 55 | 1018.5 |
| 20260906090058 | 14 | 0 | 0.0 | 0.0 | 0.00 | 0.00 | 0.00 | 55 | 1018.6 |
| 20260906084555 | 14 | 0 | 0.0 | 0.0 | 0.00 | 0.00 | 0.00 | 57 | 1018.6 |
| 20260906084445 | 14 | 286 | 0.0 | 0.0 | 0.00 | 0.00 | 0.00 | 58 | 1018.6 |
| 20260906083427 | 15 | 286 | 0.0 | 0.0 | 0.00 | 0.00 | 0.00 | 56 | 1018.6 |
| 20260906083059 | 15 | 0 | 0.0 | 6.4 | 0.00 | 0.00 | 0.00 | 55 | 1018.7 |
| 20260906082413 | 16 | 286 | 0.0 | 3.2 | 0.00 | 0.00 | 0.00 | 53 | 1018.8 |
| 20260906081600 | 16 | 0 | 0.0 | 3.2 | 0.00 | 0.00 | 0.00 | 49 | 1018.9 |
| 20260906081406 | 16 | 269 | 0.0 | 0.0 | 0.00 | 0.00 | 0.00 | 49 | 1018.9 |
| 20260906080414 | 16 | 271 | 0.0 | 3.2 | 0.00 | 0.00 | 0.00 | 51 | 1019.1 |
| 20260906080059 | 16 | 271 | 0.0 | 6.4 | 0.00 | 0.00 | 0.00 | 51 | 1019.1 |
| 20260906075427 | 16 | 271 | 0.0 | 3.2 | 0.00 | 0.00 | 0.00 | 52 | 1019.1 |
| 20260906074558 | 15 | 0 | 0.0 | 4.8 | 0.00 | 0.00 | 0.00 | 55 | 1019.3 |
| 20260906074415 | 15 | 271 | 0.0 | 3.2 | 0.00 | 0.00 | 0.00 | 56 | 1019.3 |
| 20260906073344 | 14 | 278 | 0.0 | 0.0 | 0.00 | 0.00 | 0.00 | 59 | 1019.3 |
| 20260906073103 | 13 | 278 | 0.0 | 4.8 | 0.00 | 0.00 | 0.00 | 59 | 1019.3 |
| 20260906072349 | 14 | 279 | 0.0 | 1.6 | 0.00 | 0.00 | 0.00 | 62 | 1019.4 |
| 20260906071600 | 13 | 0 | 0.0 | 0.0 | 0.00 | 0.00 | 0.00 | 60 | 1019.4 |
| 20260906071349 | 14 | 303 | 0.0 | 0.0 | 0.00 | 0.00 | 0.00 | 61 | 1019.5 |
| 20260906070356 | 14 | 303 | 0.0 | 0.0 | 0.00 | 0.00 | 0.00 | 60 | 1019.5 |
| 20260906070057 | 13 | 0 | 0.0 | 0.0 | 0.00 | 0.00 | 0.00 | 61 | 1019.6 |
| 20260906065405 | 13 | 303 | 0.0 | 0.0 | 0.00 | 0.00 | 0.00 | 62 | 1019.7 |
| 20260906064552 | 13 | 0 | 0.0 | 0.0 | 0.00 | 0.00 | 0.00 | 61 | 1019.7 |
| 20260906064344 | 13 | 303 | 0.0 | 0.0 | 0.00 | 0.00 | 0.00 | 60 | 1019.7 |
| 20260906063100 | 13 | 0 | 0.0 | 0.0 | 0.00 | 0.00 | 0.00 | 59 | 1019.8 |
| 20260906062240 | 14 | 303 | 0.0 | 0.0 | 0.00 | 0.00 | 0.00 | 60 | 1020.0 |
| 20260906061559 | 13 | 0 | 0.0 | 0.0 | 0.00 | 0.00 | 0.00 | 60 | 1020.0 |
| 20260906061213 | 14 | 303 | 0.0 | 0.0 | 0.00 | 0.00 | 0.00 | 59 | 1020.0 |
| 20260906060217 | 14 | 303 | 0.0 | 0.0 | 0.00 | 0.00 | 0.00 | 58 | 1020.0 |
| 20260906060103 | 14 | 0 | 0.0 | 0.0 | 0.00 | 0.00 | 0.00 | 58 | 1020.0 |
| 20260906055219 | 15 | 303 | 0.0 | 0.0 | 0.00 | 0.00 | 0.00 | 57 | 1020.0 |
| 20260906054552 | 14 | 0 | 0.0 | 0.0 | 0.00 | 0.00 | 0.00 | 57 | 1019.8 |
| 20260906053050 | 15 | 0 | 0.0 | 0.0 | 0.00 | 0.00 | 0.00 | 58 | 1020.0 |
| 20260906052030 | 15 | 303 | 0.0 | 0.0 | 0.00 | 0.00 | 0.00 | 57 | 1020.2 |
| 20260906051600 | 15 | 0 | 0.0 | 0.0 | 0.00 | 0.00 | 0.00 | 57 | 1020.2 |
| 20260906051025 | 15 | 303 | 0.0 | 0.0 | 0.00 | 0.00 | 0.00 | 56 | 1020.3 |
| 20260906050059 | 15 | 0 | 0.0 | 0.0 | 0.00 | 0.00 | 0.00 | 57 | 1020.2 |
| 20260906050015 | 15 | 303 | 0.0 | 0.0 | 0.00 | 0.00 | 0.00 | 57 | 1020.3 |
| 20260906045019 | 15 | 303 | 0.0 | 0.0 | 0.00 | 0.00 | 0.00 | 55 | 1020.3 |
| 20260906044552 | 15 | 0 | 0.0 | 0.0 | 0.00 | 0.00 | 0.00 | 56 | 1020.3 |
| 20260906044034 | 15 | 303 | 0.0 | 0.0 | 0.00 | 0.00 | 0.00 | 57 | 1020.3 |
| 20260906043049 | 15 | 0 | 0.0 | 0.0 | 0.00 | 0.00 | 0.00 | 57 | 1020.6 |
| 20260906043010 | 15 | 303 | 0.0 | 0.0 | 0.00 | 0.00 | 0.00 | 57 | 1020.7 |
| 20260906042015 | 15 | 303 | 0.0 | 0.0 | 0.00 | 0.00 | 0.00 | 58 | 1020.4 |
| 20260906041558 | 15 | 0 | 0.0 | 0.0 | 0.00 | 0.00 | 0.00 | 56 | 1020.3 |
| 20260906040056 | 15 | 0 | 0.0 | 4.8 | 0.00 | 0.00 | 0.00 | 54 | 1020.3 |
| 20260906035839 | 15 | 303 | 0.0 | 0.0 | 0.00 | 0.00 | 0.00 | 54 | 1020.1 |
| 20260906034839 | 16 | 297 | 0.0 | 1.6 | 0.00 | 0.00 | 0.00 | 54 | 1020.1 |
| 20260906034552 | 15 | 297 | 0.0 | 3.2 | 0.00 | 0.00 | 0.00 | 54 | 1020.1 |
| 20260906033050 | 15 | 297 | 1.6 | 4.8 | 0.00 | 0.00 | 0.00 | 54 | 1020.1 |
| 20260906032711 | 16 | 290 | 0.0 | 3.2 | 0.00 | 0.00 | 0.00 | 54 | 1020.1 |
| 20260906031640 | 16 | 293 | 0.0 | 1.6 | 0.00 | 0.00 | 0.00 | 54 | 1020.0 |
| 20260906031558 | 15 | 293 | 0.0 | 3.2 | 0.00 | 0.00 | 0.00 | 54 | 1020.0 |
| 20260906030054 | 16 | 293 | 1.6 | 4.8 | 0.00 | 0.00 | 0.00 | 53 | 1020.0 |
| 20260906025529 | 16 | 292 | 0.0 | 1.6 | 0.00 | 0.00 | 0.00 | 53 | 1020.1 |
| 20260906024600 | 16 | 0 | 1.6 | 4.8 | 0.00 | 0.00 | 0.00 | 52 | 1020.0 |
| 20260906024508 | 16 | 292 | 0.0 | 3.2 | 0.00 | 0.00 | 0.00 | 53 | 1020.0 |
| 20260906023502 | 16 | 293 | 0.0 | 3.2 | 0.00 | 0.00 | 0.00 | 52 | 1019.8 |
| 20260906023058 | 16 | 0 | 0.0 | 4.8 | 0.00 | 0.00 | 0.00 | 52 | 1019.7 |
| 20260906021557 | 16 | 0 | 0.0 | 3.2 | 0.00 | 0.00 | 0.00 | 51 | 1019.4 |
| 20260906021333 | 16 | 297 | 0.0 | 1.6 | 0.00 | 0.00 | 0.00 | 51 | 1019.5 |
| 20260906020353 | 16 | 297 | 0.0 | 1.6 | 0.00 | 0.00 | 0.00 | 52 | 1019.4 |
| 20260906020101 | 16 | 0 | 0.0 | 3.2 | 0.00 | 0.00 | 0.00 | 51 | 1019.4 |
| 20260906015334 | 16 | 297 | 0.0 | 0.0 | 0.00 | 0.00 | 0.00 | 51 | 1019.4 |
| 20260906014605 | 16 | 0 | 0.0 | 3.2 | 0.00 | 0.00 | 0.00 | 51 | 1019.4 |
| 20260906014335 | 17 | 297 | 0.0 | 0.0 | 0.00 | 0.00 | 0.00 | 51 | 1019.4 |
| 20260906013302 | 17 | 298 | 0.0 | 1.6 | 0.00 | 0.00 | 0.00 | 51 | 1019.4 |
| 20260906013052 | 17 | 298 | 0.0 | 3.2 | 0.00 | 0.00 | 0.00 | 51 | 1019.4 |
| 20260906012233 | 17 | 298 | 0.0 | 0.0 | 0.00 | 0.00 | 0.00 | 50 | 1019.4 |
| 20260906011603 | 17 | 0 | 0.0 | 3.2 | 0.00 | 0.00 | 0.00 | 49 | 1019.4 |
| 20260906011254 | 18 | 298 | 0.0 | 1.6 | 0.00 | 0.00 | 0.00 | 49 | 1019.4 |
| 20260906010301 | 18 | 298 | 0.0 | 0.0 | 0.00 | 0.00 | 0.00 | 49 | 1019.3 |
| 20260906010050 | 18 | 0 | 0.0 | 1.6 | 0.00 | 0.00 | 0.00 | 48 | 1019.3 |
| 20260906005235 | 19 | 298 | 0.0 | 0.0 | 0.00 | 0.00 | 0.00 | 46 | 1019.3 |
| 20260906004557 | 20 | 0 | 0.0 | 1.6 | 0.00 | 0.00 | 0.00 | 44 | 1019.2 |
| 20260906004224 | 20 | 298 | 0.0 | 0.0 | 0.00 | 0.00 | 0.00 | 43 | 1019.2 |
| 20260906003150 | 21 | 299 | 0.0 | 0.0 | 0.00 | 0.00 | 0.00 | 40 | 1019.2 |
| 20260906003053 | 21 | 0 | 0.0 | 4.8 | 0.00 | 0.00 | 0.00 | 40 | 1019.2 |
| 20260906002130 | 22 | 300 | 1.6 | 4.8 | 0.00 | 0.00 | 0.00 | 37 | 1019.2 |
| 20260906001603 | 22 | 301 | 1.6 | 6.4 | 0.00 | 0.00 | 0.00 | 36 | 1019.2 |
| 20260906001148 | 22 | 301 | 1.6 | 4.8 | 0.00 | 0.00 | 0.00 | 37 | 1019.3 |
| 20260906000100 | 22 | 304 | 1.6 | 4.8 | 0.00 | 0.00 | 0.00 | 35 | 1019.2 |
| 20260905234955 | 23 | 296 | 1.6 | 9.7 | 0.00 | 0.00 | 0.00 | 34 | 1019.3 |
| 20260905234556 | 23 | 0 | 3.2 | 11.3 | 0.00 | 0.00 | 0.00 | 33 | 1019.2 |
| 20260905234010 | 24 | 298 | 3.2 | 11.3 | 0.00 | 0.00 | 0.00 | 33 | 1019.1 |
| 20260905233108 | 23 | 295 | 3.2 | 14.5 | 0.00 | 0.00 | 0.00 | 32 | 1019.2 |
| 20260905231600 | 27 | 320 | 1.6 | 8.0 | 0.00 | 0.00 | 0.00 | 27 | 1019.0 |
| 20260905230745 | 28 | 346 | 0.0 | 1.6 | 0.00 | 0.00 | 0.00 | 26 | 1019.0 |
| 20260905225736 | 28 | 321 | 0.0 | 3.2 | 0.00 | 0.00 | 0.00 | 26 | 1019.1 |
| 20260905224712 | 27 | 66 | 0.0 | 6.4 | 0.00 | 0.00 | 0.00 | 28 | 1019.1 |
| 20260905224608 | 26 | 0 | 1.6 | 8.0 | 0.00 | 0.00 | 0.00 | 27 | 1019.1 |
| 20260905223705 | 27 | 159 | 1.6 | 8.0 | 0.00 | 0.00 | 0.00 | 27 | 1019.2 |
| 20260905223054 | 27 | 72 | 3.2 | 11.3 | 0.00 | 0.00 | 0.00 | 27 | 1019.2 |
| 20260905222653 | 27 | 59 | 0.0 | 8.0 | 0.00 | 0.00 | 0.00 | 26 | 1019.1 |
| 20260905221704 | 28 | 43 | 1.6 | 0.0 | 0.00 | 0.00 | 0.00 | 26 | 1019.3 |
| 20260905221557 | 28 | 0 | 3.2 | 8.0 | 0.00 | 0.00 | 0.00 | 26 | 1019.3 |